Regional Weather Roundup
Issued by NWS Charleston, SC

Current Version | Previous Version | Graphics & Text | Print | Product List | Glossary On
Versions: 1 2 3 4 5 6 7 8 9 10 11 12 13 14 15 16 17 18 19 20 21 22 23 24 25 26 27 28 29 30 31 32 33 34 35 36 37 38 39 40 41 42 43 44 45 46 47 48 49 50
982 ASUS42 KCHS 260128 RWRCHS REGIONAL WEATHER ROUNDUP NATIONAL WEATHER SERVICE CHARLESTON SC 900 PM EDT MON JUL 25 2016 NOTE: "FAIR" INDICATES FEW OR NO CLOUDS BELOW 12,000 FEET WITH NO SIGNIFICANT WEATHER AND/OR OBSTRUCTIONS TO VISIBILITY. NOT ALL STATIONS ARE QUALITY CONTROLLED. USE DATA WITH CAUTION... ESPECIALLY DEWPOINT OBSERVATIONS. SCZ027-030-031-034>040-042>050-260200- ...SOUTHEAST SOUTH CAROLINA... CITY SKY/WX TMP DP RH WIND PRES REMARKS N CHARLESTON PTCLDY 82 72 71 S7 30.03R WATERFRONT PRK N/A 84 75 74 S7 30.01R HX 92 MOUNT PLEASANT FAIR 82 73 74 CALM 30.04R JOHNS ISLAND FAIR 82 75 78 S10 30.04R PINOPOLIS N/A 84 72 65 VRB3 29.95R MONCKS CORNER FAIR 79 70 73 S5 30.04R SUMMERVILLE FAIR 81 73 78 S3 30.04R BEAUFORT MCAS PTCLDY 83 73 72 S6 30.03R BEAUFORT ARPT FAIR 82 73 74 S6 30.03R HILTON HEAD IS CLEAR 84 73 70 S9 30.04S HX 91 WALTERBORO CLEAR 82 72 69 S5 30.04R ALLENDALE FAIR 84 70 61 S7 30.02R ...SOUTHERN MIDLANDS AND PEE DEE... CITY SKY/WX TMP DP RH WIND PRES REMARKS GEORGETOWN FAIR 79 72 78 S5 30.05R KINGSTREE FAIR 81 70 69 SE6 30.02R ORANGEBURG CLEAR 84 70 62 S8 30.02R BARNWELL NOT AVBL AIKEN FAIR 82 68 61 S5 30.05R MANNING FAIR 82 70 65 S6G17 30.03R COLUMBIA CLEAR 89 69 51 S5 29.99R HX 93 SUMTER CLEAR 86 73 66 S8 29.98R HX 93 FLORENCE CLEAR 85 72 65 S7 30.01R HX 91 MYRTLE BEACH NOT AVBL N MYRTLE BEACH CLEAR 82 74 76 SW13 30.03R $$ GAZ063-065-086>088-099>101-113>116-118-119-134>141-150-260200- ...SOUTHEAST GEORGIA... CITY SKY/WX TMP DP RH WIND PRES REMARKS SAVANNAH ARPT NOT AVBL HUNTER AAF CLEAR 83 77 82 S5 30.00R HX 91 FORT STEWART CLEAR 82 71 69 SE3 30.00R STATESBORO CLEAR 83 74 72 S6 30.03R HX 90 SYLVANIA NOT AVBL CLAXTON FAIR 84 71 63 E3 30.02R ...CSRA...CENTRAL AND FAR SOUTHEAST GEORGIA... CITY SKY/WX TMP DP RH WIND PRES REMARKS THOMSON NOT AVBL AUGUSTA-BUSH CLEAR 86 66 51 S5 29.99R AUGUSTA-DANIEL CLEAR 90 67 46 S6 30.01R HX 93 SWAINSBORO FAIR 86 68 54 SE6 30.02R VIDALIA CLEAR 86 70 58 SE5 30.02R HX 90 EASTMAN FAIR 85 58 39 CALM 30.03R HAZLEHURST FAIR 87 66 49 CALM 30.01R ALMA CLEAR 85 70 60 SE6 30.00R WAYCROSS CLEAR 88 75 65 SE8 30.02R HX 97 JESUP FAIR 82 77 83 S3 30.03R HX 91 BAXLEY FAIR 84 73 70 SE3 30.01R HX 91 BRUNSWICK CLEAR 84 73 70 S5 30.04S HX 91 SAINT SIMONS CLEAR 84 71 65 S8 30.03S $$ SCZ027-028-034-036>038-045-046-048>050-GAZ119-141-260200- ...LAKE AND SUPPLEMENTAL COASTAL OBSERVATIONS... STATION/POSITION TIME TEMP WIND PRES WAVE SWELL AIR SEA DIR/SP/G HT/PER HT/PER/DIR (UTC) (F) (DEG/KT/KT) (MB) (FT/S) (FT/S/D) WINYAH BAY 0000 84 200/ 10 1016.0S LAKE MURRAY NOT AVBL ACE BASIN NERRS 0000 85 CALM 1017.0R FORT PULASKI 0000 85 88 N/A SAPELO ISLAND 0100 84 160/ 10 1017.0S $$ ANZ835-935-AMZ111-154-330-350-352-354-370-450-454-472-260200- ...C-MAN AND BUOY OBSERVATIONS... STATION/POSITION TIME TEMP WIND PRES WAVE SWELL AIR SEA DIR/SP/G HT/PER HT/PER/DIR (UTC) (F) (DEG/KT/KT) (MB) (FT/S) (FT/S/D) BUOY 41004 0050 85 86 200/ 12/ 14 1016.8R 2/ 8 2/130/ 8 BUOY 41008 0050 85 87 150/ 16/ 17 1016.8S 2/ 8 2/ 90/ 8 FOLLY BEACH CMAN 0100 84 190/ 14/ 16 1017.2S CAPERS NEARSHORE 0108 84 84 210/ 14/ 19 1017.1R FRIPP NEARSHORE 0108 85 87 180/ 14/ 19 1016.7R STATION/POSITION TIME TEMP WIND PRES WAVE SWELL AIR SEA DIR/SP/G HT/PER HT/PER/DIR (UTC) (F) (DEG/KT/KT) (MB) (FT/S) (FT/S/D) 5E ST. MARYS GA 0101 86 N/A 3/ 4 FRYING PAN BUOY 0100 85 86 200/ 14/ 17 1017.0R BUOY 41025 0050 85 85 220/ 17/ 21 1016.2 4/ 5 2/140/ 8 CAPE LOOKOUT NC 0100 84 220/ 12/ 16 1016.4R BUOY 41002 0050 84 85 200/ 12/ 14 1018.4R 2/ 8 2/ 90/ 8 BUOY 41010 0020 85 87 160/ 10/ 12 1018.0S ST AUGUSTINE FL 0100 84 86 160/ 14/ 16 1018.1R $$

USA.gov is the U.S. government's official web portal to all federal, state and local government web resources and services.